W6DSR Weather Reports


Display with metric or nautical units.
time (UTC)temp
F
wind
direction
speed
MPH
gust
MPH
rain 1hr
in
rain 24hr
in
rain mn
in
humidity
%
barometer
mb
20260506090059 47 48 0.0 2.0 0.00 0.00 0.00 1 1020.5
20260506084556 46 48 1.0 5.0 0.00 0.00 0.00 1 1020.6
20260506083051 46 29 4.0 7.0 0.00 0.00 0.00 1 1020.6
20260506081546 46 32 4.0 6.0 0.00 0.00 0.00 1 1020.7
20260506073032 46 41 4.0 6.0 0.00 0.00 0.00 1 1020.4
20260506071529 46 49 4.0 8.0 0.00 0.00 0.00 1 1020.3
20260506061513 46 50 5.0 9.0 0.00 0.00 0.00 1 1019.8
20260506044554 47 360 8.0 12.0 0.00 0.00 0.00 1 1019.4
20260506043043 47 360 9.0 13.0 0.00 0.00 0.00 1 1019.1
20260506041538 47 11 7.0 14.0 0.00 0.00 0.00 1 1018.8
20260506040034 47 355 8.0 12.0 0.00 0.00 0.00 1 1018.7
20260506034530 47 360 11.0 15.0 0.00 0.00 0.00 1 1018.5
20260506033025 47 5 9.0 13.0 0.00 0.00 0.00 1 1018.4
20260506031521 47 355 11.0 15.0 0.00 0.00 0.00 1 1018.0
20260506030027 47 355 10.0 15.0 0.00 0.00 0.00 1 1017.9
20260506024530 47 5 8.0 14.0 0.00 0.00 0.00 1 1017.9
20260506023008 48 355 11.0 14.0 0.00 0.00 0.00 1 1017.8
20260506021502 48 344 10.0 14.0 0.00 0.00 0.00 1 1017.7
20260506020058 49 360 11.0 15.0 0.00 0.00 0.00 1 1017.6
20260506014554 50 5 8.0 15.0 0.00 0.00 0.00 1 1017.4
20260506013050 50 355 9.0 15.0 0.00 0.00 0.00 1 1017.5
20260506011544 51 17 10.0 16.0 0.00 0.00 0.00 1 1017.5
20260506010040 51 355 9.0 17.0 0.00 0.00 0.00 1 1017.4
20260506004536 52 344 8.0 15.0 0.00 0.00 0.00 1 1017.3
20260506003036 53 342 10.0 16.0 0.00 0.00 0.00 1 1017.1
20260506001532 53 355 8.0 16.0 0.00 0.00 0.00 1 1017.1
20260506000021 54 355 7.0 16.0 0.00 0.00 0.00 1 1017.2
20260505234527 55 5 7.0 16.0 0.00 0.00 0.00 1 1017.1
20260505233015 55 331 10.0 14.0 0.00 0.00 0.00 1 1017.1
20260505231509 56 5 7.0 16.0 0.00 0.00 0.00 1 1017.1
20260505230007 56 337 9.0 14.0 0.00 0.00 0.00 1 1017.1
20260505224600 57 339 1.0 12.0 0.00 0.00 0.00 1 1017.1
20260505223058 57 355 4.0 9.0 0.00 0.00 0.00 1 1017.2
20260505221550 58 347 3.0 9.0 0.00 0.00 0.00 1 1017.4
20260505220046 58 342 0.0 8.0 0.00 0.00 0.00 1 1017.5
20260505214542 57 287 0.0 9.0 0.00 0.00 0.00 1 1017.5
20260505213047 57 355 2.0 10.0 0.00 0.00 0.00 1 1017.6
20260505211532 55 319 0.0 10.0 0.00 0.00 0.00 1 1017.6
20260505210027 54 342 0.0 11.0 0.00 0.00 0.00 1 1017.7
20260505204523 53 346 2.0 9.0 0.00 0.00 0.00 1 1017.8
20260505203020 52 272 5.0 10.0 0.00 0.00 0.00 1 1017.9
20260505201515 52 308 3.0 8.0 0.00 0.00 0.00 1 1018.1
20260505200011 50 337 3.0 10.0 0.00 0.00 0.00 1 1018.1
20260505194505 50 277 3.0 9.0 0.00 0.00 0.00 1 1018.1
20260505193059 50 360 2.0 9.0 0.00 0.00 0.00 1 1018.1
20260505191611 49 360 3.0 8.0 0.00 0.00 0.00 1 1018.2
20260505190053 48 321 1.0 6.0 0.00 0.00 0.00 1 1018.1
20260505184546 48 360 3.0 8.0 0.00 0.00 0.00 1 1018.1
20260505183042 48 355 5.0 8.0 0.00 0.00 0.00 1 1018.1
20260505181537 47 32 3.0 8.0 0.00 0.00 0.00 1 1017.9
20260505180044 47 355 6.0 9.0 0.00 0.00 0.00 1 1017.8
20260505174532 47 335 4.0 10.0 0.00 0.00 0.00 1 1017.5
20260505173024 46 5 0.0 9.0 0.00 0.00 0.00 1 1017.4
20260505171519 46 360 5.0 9.0 0.00 0.00 0.00 1 1017.3
20260505170015 46 355 5.0 9.0 0.00 0.00 0.00 1 1017.3
20260505164510 46 5 5.0 11.0 0.00 0.00 0.00 1 1017.3
20260505163009 46 355 7.0 13.0 0.00 0.00 0.00 1 1017.1
20260505161601 46 360 12.0 15.0 0.00 0.00 0.00 1 1017.0
20260505153048 45 360 12.0 18.0 0.00 0.00 0.00 1 1016.7
20260505151543 45 350 14.0 18.0 0.00 0.00 0.00 1 1016.5
20260505124558 45 345 8.0 15.0 0.00 0.00 0.00 1 1015.9
20260505123058 45 350 10.0 18.0 0.00 0.00 0.00 1 1015.8
20260505121549 44 355 13.0 17.0 0.00 0.00 0.00 1 1015.6
20260505120045 44 360 12.0 16.0 0.00 0.00 0.00 1 1015.7
20260505114541 44 9 13.0 17.0 0.00 0.00 0.00 1 1015.6
20260505113039 44 355 11.0 14.0 0.00 0.00 0.00 1 1015.7
20260505111531 45 348 11.0 14.0 0.00 0.00 0.00 1 1015.7
20260505101528 45 360 16.0 21.0 0.00 0.00 0.00 1 1015.6
20260505100030 45 333 13.0 18.0 0.00 0.00 0.00 1 1015.6
20260505094506 45 349 11.0 17.0 0.00 0.00 0.00 1 1015.7
20260505093105 45 355 11.0 15.0 0.00 0.00 0.00 1 1015.9
20260505091556 45 340 9.0 14.0 0.00 0.00 0.00 1 1016.2